Powrót do katalogu

METEOR 2-11 DEB

AktywnyPO
NORAD 42456·DEBRIS·🇷🇺 Russia

Wystrzelony Jul 5, 1984 z Plesetsk Cosmodrome

Loading…

Następne Przeloty (najbliższe 24 godziny)

TLE

ŚwieżeSource: Space-Track

Epoka: Sep 14, 2026, 11:07 UTC

1 42456U 84072S   26257.46331903  .00000145  00000-0  93108-4 0  9998
2 42456  82.5424 312.0441 0041204 120.1294 240.3967 13.96221700600113

Śledź METEOR 2-11 DEB w czasie rzeczywistym z AllMySat

Download on the App Store